Temp
-12 -12 -12 -11 -11 -11 -11 -11 -11 -11 -11 -10 -10 -10 -10 -10 -10 -10 -10 -10 -10 -10 -10 -10 -10 -10 -11 -11 -11 -11 -11 -11 -12 -12 -12 -12 -12 -12 -12 -12 -12 -12 -12 -12 -12 -12 -12
-13 -13 -13 -13 -12 -12 -12 -12 -11 -11 -11 -11 -11 -11 -11 -11 -11 -11 -11 -11 -11 -10 -10 -10 -11 -10 -11 -12 -11 -12 -12 -12 -13 -13 -12 -12 -12 -12 -12 -13 -13 -12 -12 -12 -12 -12 -11
-14 -13 -13 -13 -13 -13 -13 -13 -12 -12 -12 -12 -12 -12 -12 -11 -11 -11 -11 -11 -11 -11 -11 -11 -11 -11 -12 -12 -11 -12 -12 -13 -13 -13 -13 -13 -13 -13 -13 -13 -13 -13 -12 -12 -12 -12 -12
-14 -14 -14 -14 -13 -13 -14 -14 -14 -13 -13 -13 -13 -13 -12 -12 -12 -12 -12 -12 -11 -11 -11 -11 -11 -11 -12 -12 -12 -13 -13 -13 -14 -13 -13 -13 -13 -13 -13 -13 -13 -13 -12 -12 -12 -12 -12
-15 -15 -14 -14 -14 -14 -14 -14 -14 -14 -14 -14 -13 -13 -13 -13 -13 -12 -12 -13 -12 -12 -12 -12 -12 -12 -13 -13 -13 -13 -14 -14 -14 -14 -13 -13 -13 -13 -13 -13 -13 -13 -12 -12 -12 -12 -12
-15 -15 -15 -15 -14 -15 -14 -14 -14 -14 -14 -14 -14 -14 -14 -14 -13 -13 -13 -13 -13 -13 -12 -13 -13 -13 -13 -13 -14 -14 -14 -14 -14 -14 -14 -13 -13 -13 -14 -14 -13 -13 -12 -12 -12 -13 -12
-15 -15 -15 -15 -15 -14 -14 -14 -14 -14 -14 -14 -14 -14 -14 -14 -14 -14 -14 -14 -14 -13 -13 -12 -13 -13 -13 -13 -13 -14 -15 -15 -15 -15 -15 -14 -14 -14 -15 -13 -13 -13 -13 -13 -13 -13 -12
-16 -15 -15 -15 -15 -15 -14 -15 -15 -14 -15 -14 -14 -14 -14 -14 -14 -14 -14 -14 -14 -13 -13 -13 -13 -13 -13 -13 -13 -14 -15 -15 -15 -15 -15 -15 -14 -15 -14 -14 -14 -14 -14 -14 -13 -13 -13
-16 -16 -15 -15 -15 -15 -15 -15 -15 -15 -15 -15 -15 -15 -15 -14 -14 -15 -15 -14 -15 -14 -13 -14 -13 -13 -14 -13 -14 -16 -15 -15 -15 -15 -15 -14 -14 -14 -14 -14 -14 -14 -14 -14 -13 -14 -14
-16 -15 -16 -16 -15 -15 -15 -15 -15 -15 -15 -15 -15 -15 -15 -15 -15 -15 -16 -14 -15 -16 -14 -12 -14 -13 -14 -14 -14 -16 -15 -15 -15 -15 -15 -14 -15 -15 -14 -14 -15 -14 -15 -15 -14 -14 -14
-18 -17 -16 -16 -16 -16 -16 -16 -16 -16 -16 -16 -16 -15 -15 -15 -16 -17 -16 -16 -17 -17 -16 -14 -13 -13 -14 -15 -15 -15 -16 -16 -16 -16 -15 -15 -16 -15 -15 -15 -15 -15 -15 -15 -15 -15 -14
-20 -19 -19 -18 -18 -17 -17 -17 -16 -17 -16 -16 -16 -16 -16 -17 -18 -18 -18 -18 -18 -17 -15 -14 -14 -14 -15 -15 -16 -16 -16 -16 -16 -16 -16 -16 -16 -16 -16 -16 -16 -15 -15 -15 -15 -15 -15
-22 -21 -21 -21 -21 -21 -20 -19 -18 -19 -19 -18 -17 -17 -17 -17 -20 -19 -19 -20 -19 -17 -15 -15 -15 -15 -16 -16 -16 -16 -16 -16 -16 -16 -16 -16 -16 -16 -16 -16 -17 -17 -17 -16 -16 -16 -16
-25 -24 -23 -22 -22 -22 -22 -21 -21 -20 -19 -20 -20 -19 -18 -18 -20 -20 -21 -21 -20 -15 -16 -17 -16 -17 -17 -17 -17 -17 -17 -16 -16 -17 -17 -16 -16 -17 -17 -17 -17 -17 -17 -18 -18 -17 -17
-26 -26 -26 -24 -24 -23 -22 -23 -22 -21 -21 -22 -21 -19 -19 -20 -22 -21 -22 -22 -17 -16 -17 -18 -19 -18 -17 -17 -18 -17 -17 -17 -17 -17 -18 -17 -17 -17 -18 -18 -18 -17 -18 -19 -20 -19 -19
-28 -27 -27 -27 -26 -25 -25 -23 -23 -23 -22 -22 -22 -23 -21 -22 -22 -23 -23 -21 -17 -18 -19 -19 -20 -19 -18 -17 -18 -18 -18 -17 -18 -18 -19 -18 -18 -18 -19 -19 -19 -19 -20 -20 -21 -21 -21
-29 -28 -28 -27 -27 -27 -26 -25 -24 -23 -23 -22 -22 -22 -22 -22 -23 -24 -23 -19 -19 -18 -20 -20 -19 -20 -19 -19 -19 -19 -19 -19 -18 -19 -20 -19 -19 -18 -19 -19 -20 -21 -20 -21 -21 -21 -21
-30 -30 -28 -28 -28 -27 -27 -26 -25 -24 -24 -23 -23 -22 -22 -23 -24 -23 -22 -20 -20 -20 -20 -20 -20 -20 -19 -20 -20 -20 -20 -19 -20 -19 -19 -20 -20 -19 -20 -20 -21 -21 -21 -22 -21 -21 -21
-31 -31 -30 -28 -28 -28 -28 -27 -26 -26 -24 -24 -24 -23 -23 -24 -24 -23 -22 -21 -21 -21 -21 -21 -21 -21 -21 -21 -21 -21 -21 -21 -21 -21 -20 -21 -21 -21 -21 -21 -21 -21 -21 -21 -22 -21 -21
-31 -31 -30 -29 -29 -29 -29 -29 -27 -26 -26 -25 -24 -24 -24 -24 -24 -24 -24 -23 -23 -22 -22 -22 -22 -22 -22 -22 -22 -21 -21 -22 -22 -22 -22 -22 -22 -22 -21 -22 -22 -22 -21 -22 -22 -21 -21
-32 -31 -29 -30 -30 -29 -29 -29 -28 -27 -27 -27 -27 -26 -25 -24 -25 -24 -25 -24 -23 -22 -23 -23 -23 -23 -23 -23 -23 -22 -22 -22 -22 -22 -22 -22 -22 -22 -22 -22 -22 -22 -22 -22 -22 -21 -21
-32 -31 -30 -30 -30 -30 -30 -30 -29 -28 -28 -28 -28 -27 -27 -26 -26 -26 -26 -25 -25 -24 -25 -24 -24 -24 -24 -23 -23 -23 -23 -23 -23 -23 -23 -23 -23 -23 -22 -23 -23 -23 -22 -22 -22 -21 -21
-32 -32 -31 -31 -30 -30 -31 -30 -30 -28 -28 -28 -28 -28 -28 -27 -26 -26 -26 -25 -25 -25 -25 -25 -24 -24 -24 -23 -24 -24 -23 -23 -23 -23 -23 -23 -23 -23 -23 -23 -24 -23 -22 -22 -22 -22 -22
-32 -32 -31 -31 -31 -31 -31 -31 -31 -30 -29 -29 -29 -28 -28 -27 -27 -26 -26 -26 -26 -26 -25 -25 -25 -25 -24 -24 -24 -24 -24 -24 -24 -23 -23 -23 -24 -24 -24 -24 -24 -23 -23 -23 -22 -22 -23
-32 -31 -31 -32 -32 -32 -31 -31 -31 -31 -30 -29 -29 -29 -29 -27 -27 -26 -26 -26 -26 -27 -25 -25 -25 -25 -25 -25 -25 -25 -24 -24 -23 -23 -24 -24 -24 -24 -25 -24 -24 -23 -23 -23 -23 -23 -23
-33 -33 -32 -32 -32 -32 -32 -32 -32 -32 -31 -30 -30 -29 -29 -28 -27 -27 -27 -27 -27 -27 -26 -26 -26 -26 -26 -25 -25 -25 -24 -24 -24 -24 -24 -24 -24 -25 -25 -24 -24 -23 -23 -24 -23 -22 -23
-33 -33 -33 -33 -33 -32 -32 -32 -32 -32 -32 -30 -30 -29 -29 -28 -28 -28 -28 -28 -28 -28 -27 -27 -27 -27 -27 -26 -27 -26 -26 -25 -24 -25 -25 -25 -25 -25 -25 -25 -24 -24 -24 -24 -23 -23 -23
-33 -33 -32 -33 -33 -33 -33 -33 -32 -32 -32 -30 -30 -30 -29 -28 -28 -29 -28 -28 -29 -28 -28 -27 -27 -27 -27 -27 -27 -26 -25 -25 -25 -25 -25 -25 -25 -25 -25 -25 -24 -25 -24 -24 -24 -24 -24
-33 -33 -33 -33 -33 -33 -33 -33 -33 -32 -31 -30 -30 -29 -29 -29 -29 -29 -29 -29 -28 -28 -28 -28 -27 -27 -27 -27 -26 -26 -25 -25 -25 -25 -25 -25 -25 -25 -25 -25 -25 -25 -24 -24 -24 -24 -24
Height
5719 5722 5727 5729 5732 5735 5737 5742 5743 5746 5748 5751 5754 5756 5759 5760 5761 5764 5766 5767 5769 5771 5773 5774 5775 5777 5778 5780 5776 5779 5781 5782 5782 5783 5783 5783 5783 5784 5785 5786 5784 5784 5787 5787 5789 5790 5789
5705 5708 5712 5716 5718 5722 5724 5728 5730 5734 5736 5740 5742 5745 5747 5749 5752 5753 5755 5757 5759 5760 5763 5764 5766 5767 5770 5771 5769 5772 5771 5773 5774 5775 5776 5775 5776 5777 5777 5779 5778 5776 5778 5779 5782 5781 5781
5690 5694 5697 5701 5705 5709 5713 5716 5718 5721 5724 5727 5730 5733 5736 5737 5740 5744 5745 5745 5748 5750 5753 5755 5757 5759 5761 5760 5762 5762 5764 5765 5765 5767 5768 5767 5768 5768 5770 5770 5769 5769 5768 5769 5770 5770 5770
5676 5679 5683 5686 5691 5696 5698 5702 5706 5708 5712 5715 5717 5720 5724 5727 5729 5732 5733 5734 5737 5739 5742 5745 5748 5750 5751 5751 5752 5753 5754 5755 5756 5758 5758 5759 5759 5759 5760 5759 5758 5759 5758 5757 5758 5759 5760
5662 5666 5669 5672 5676 5680 5685 5688 5691 5695 5698 5701 5705 5707 5711 5714 5716 5719 5720 5721 5724 5728 5731 5733 5737 5739 5741 5741 5742 5742 5743 5745 5747 5747 5747 5749 5749 5750 5750 5750 5748 5747 5744 5746 5748 5749 5749
5643 5647 5651 5655 5659 5664 5668 5673 5675 5680 5684 5688 5691 5694 5698 5701 5704 5707 5707 5710 5712 5716 5719 5721 5723 5728 5729 5732 5731 5732 5733 5735 5737 5737 5738 5740 5738 5738 5742 5739 5735 5735 5736 5736 5737 5740 5737
5623 5628 5632 5636 5641 5647 5652 5656 5660 5665 5670 5673 5676 5681 5685 5689 5691 5694 5696 5699 5703 5704 5707 5710 5713 5716 5718 5720 5722 5723 5725 5724 5726 5728 5729 5729 5728 5730 5728 5726 5724 5723 5724 5724 5726 5725 5726
5601 5607 5613 5619 5624 5629 5634 5638 5644 5650 5654 5659 5663 5668 5672 5676 5679 5681 5683 5685 5688 5693 5697 5700 5703 5706 5708 5709 5711 5713 5715 5715 5716 5718 5719 5719 5718 5718 5718 5717 5715 5715 5713 5713 5714 5714 5714
5580 5586 5594 5598 5605 5611 5616 5620 5626 5632 5638 5643 5647 5654 5657 5662 5667 5668 5669 5673 5677 5681 5684 5692 5692 5697 5697 5697 5701 5704 5704 5705 5707 5708 5709 5707 5706 5710 5709 5707 5707 5706 5703 5703 5703 5704 5705
5555 5563 5572 5577 5584 5591 5597 5602 5608 5614 5620 5627 5631 5636 5643 5649 5654 5653 5656 5660 5666 5668 5671 5680 5683 5684 5685 5687 5690 5691 5691 5694 5694 5694 5695 5696 5699 5698 5697 5698 5697 5697 5695 5692 5693 5693 5694
5533 5539 5546 5554 5562 5569 5577 5584 5589 5596 5603 5609 5613 5619 5625 5633 5639 5637 5642 5647 5651 5657 5660 5669 5670 5674 5674 5677 5680 5683 5682 5682 5683 5683 5684 5685 5686 5686 5688 5688 5686 5688 5686 5684 5681 5681 5682
5509 5516 5523 5530 5538 5546 5553 5562 5570 5576 5582 5589 5595 5602 5609 5617 5622 5619 5625 5632 5636 5643 5649 5652 5656 5660 5662 5665 5667 5670 5672 5673 5674 5673 5674 5675 5675 5677 5677 5676 5677 5677 5675 5672 5670 5669 5670
5484 5494 5503 5511 5518 5524 5533 5541 5551 5557 5565 5571 5576 5583 5594 5603 5604 5604 5609 5615 5620 5629 5639 5640 5645 5648 5649 5651 5654 5657 5659 5660 5663 5663 5666 5665 5666 5666 5666 5665 5665 5664 5662 5660 5660 5659 5657
5466 5473 5484 5491 5500 5509 5517 5525 5532 5539 5546 5552 5558 5568 5578 5588 5582 5587 5592 5596 5603 5624 5627 5625 5631 5635 5639 5642 5642 5642 5645 5649 5651 5651 5652 5653 5656 5655 5656 5654 5654 5653 5650 5648 5647 5646 5645
5445 5456 5465 5473 5482 5491 5502 5510 5517 5524 5531 5534 5543 5553 5564 5572 5567 5570 5573 5573 5599 5614 5615 5613 5617 5620 5628 5632 5630 5631 5633 5636 5639 5640 5641 5641 5643 5642 5642 5642 5642 5642 5641 5640 5635 5634 5632
5424 5435 5447 5457 5466 5474 5482 5493 5503 5510 5516 5522 5529 5536 5552 5554 5554 5552 5553 5562 5592 5597 5597 5600 5603 5609 5616 5620 5618 5618 5620 5626 5628 5629 5629 5630 5631 5631 5631 5633 5632 5633 5632 5630 5629 5626 5622
5404 5414 5428 5440 5452 5459 5465 5474 5486 5495 5500 5507 5514 5522 5536 5539 5537 5533 5537 5559 5577 5584 5583 5587 5591 5597 5603 5606 5606 5605 5608 5614 5617 5618 5619 5619 5620 5623 5622 5624 5624 5623 5622 5621 5620 5619 5617
5385 5398 5411 5423 5432 5441 5449 5457 5468 5479 5485 5491 5499 5509 5521 5520 5519 5519 5528 5556 5564 5569 5568 5572 5578 5582 5590 5594 5593 5593 5597 5601 5604 5607 5608 5609 5605 5609 5611 5611 5612 5612 5613 5614 5611 5612 5611
5368 5384 5399 5409 5417 5425 5433 5441 5451 5460 5468 5477 5483 5496 5503 5503 5502 5511 5523 5538 5546 5555 5557 5559 5564 5571 5575 5579 5580 5583 5586 5590 5592 5595 5598 5600 5599 5599 5599 5601 5602 5604 5606 5604 5602 5602 5601
5354 5371 5387 5394 5399 5409 5419 5426 5436 5446 5454 5460 5467 5475 5482 5485 5492 5504 5512 5521 5529 5539 5543 5546 5552 5558 5561 5565 5568 5572 5577 5579 5581 5584 5588 5590 5589 5589 5591 5591 5592 5592 5595 5594 5594 5591 5592
5341 5359 5372 5378 5387 5396 5403 5413 5422 5434 5442 5447 5452 5456 5464 5472 5482 5491 5498 5508 5516 5526 5529 5532 5536 5545 5548 5551 5555 5559 5564 5567 5571 5574 5576 5578 5576 5579 5580 5580 5580 5581 5583 5584 5583 5586 5583
5330 5347 5355 5363 5374 5383 5392 5400 5409 5420 5430 5433 5438 5444 5457 5467 5473 5479 5484 5494 5503 5514 5515 5521 5526 5533 5535 5538 5544 5548 5550 5554 5557 5560 5563 5565 5565 5567 5568 5570 5568 5568 5572 5572 5574 5576 5575
5323 5335 5348 5356 5364 5372 5380 5389 5398 5406 5413 5417 5427 5436 5445 5454 5463 5469 5477 5490 5496 5499 5505 5512 5515 5518 5522 5532 5531 5533 5536 5539 5544 5547 5550 5552 5554 5557 5557 5558 5556 5555 5566 5564 5564 5564 5566
5320 5328 5340 5346 5354 5361 5369 5379 5386 5392 5399 5409 5418 5428 5436 5444 5451 5463 5469 5476 5482 5486 5493 5499 5502 5506 5517 5516 5517 5521 5525 5529 5533 5538 5539 5541 5545 5545 5545 5547 5543 5549 5554 5555 5553 5554 5555
5314 5324 5330 5338 5344 5352 5361 5368 5374 5381 5388 5397 5408 5416 5423 5433 5443 5450 5459 5464 5468 5472 5482 5486 5494 5498 5502 5504 5507 5509 5514 5518 5524 5525 5527 5530 5533 5534 5534 5534 5536 5540 5543 5544 5543 5545 5545
5308 5315 5321 5329 5337 5344 5351 5359 5366 5372 5379 5387 5396 5406 5415 5423 5434 5441 5445 5452 5459 5466 5471 5478 5483 5485 5490 5493 5495 5497 5502 5509 5513 5515 5520 5522 5523 5525 5525 5525 5526 5532 5533 5532 5532 5533 5537
5301 5308 5315 5323 5330 5337 5345 5352 5359 5365 5372 5379 5388 5397 5405 5415 5425 5430 5437 5445 5451 5456 5463 5468 5472 5475 5479 5483 5486 5489 5493 5499 5501 5504 5509 5513 5515 5517 5517 5517 5518 5522 5523 5523 5524 5532 5527
5299 5305 5312 5318 5324 5331 5338 5344 5350 5358 5366 5371 5382 5389 5399 5407 5416 5423 5430 5437 5443 5449 5455 5462 5465 5468 5471 5473 5478 5485 5486 5492 5495 5498 5503 5505 5507 5509 5511 5510 5512 5516 5516 5516 5518 5518 5520
5299 5303 5306 5310 5315 5323 5330 5336 5343 5351 5359 5366 5376 5384 5392 5400 5410 5416 5423 5429 5437 5444 5450 5454 5459 5463 5465 5466 5473 5478 5480 5485 5489 5491 5494 5499 5502 5502 5504 5506 5506 5506 5508 5509 5511 5512 5514
Wind_Speed
66 63 61 60 60 59 57 58 58 58 57 57 56 55 53 53 51 51 51 50 49 49 47 46 44 43 44 41 45 40 39 40 37 36 38 36 37 37 35 38 38 37 36 36 34 35 38
64 63 63 64 61 58 57 58 59 57 54 57 55 55 52 52 51 49 50 49 49 47 48 45 45 45 45 42 45 42 39 39 38 37 41 41 42 41 43 40 43 44 42 41 40 39 42
67 65 62 60 61 63 62 61 57 56 55 57 55 54 54 53 53 52 52 51 51 49 50 49 48 47 46 48 52 48 41 42 42 40 41 43 43 44 45 45 46 48 49 46 44 44 43
59 65 64 63 64 62 60 65 66 65 61 60 59 58 58 59 59 60 60 59 59 57 55 56 55 56 53 52 51 48 46 44 44 44 44 46 47 50 49 45 46 46 47 47 46 45 44
71 73 73 76 75 73 70 66 66 66 66 67 66 64 65 66 64 63 58 57 58 58 56 51 52 57 49 50 50 51 47 43 44 47 48 50 48 51 51 50 50 47 50 48 46 44 46
83 82 80 83 78 77 76 74 68 64 66 65 63 63 62 60 58 57 55 54 52 51 52 50 51 50 50 44 43 43 40 40 43 47 49 50 52 52 50 51 53 52 50 48 48 46 47
89 87 82 79 79 80 76 74 70 67 63 64 62 61 58 56 53 55 52 53 53 53 53 50 46 43 44 43 44 43 44 43 43 44 45 48 51 46 43 48 47 49 49 49 46 46 47
92 90 87 85 82 87 84 75 70 68 65 65 65 63 60 56 53 52 53 50 52 52 48 47 45 42 45 45 45 43 44 45 45 44 46 47 49 47 47 46 48 48 48 48 48 48 48
97 93 94 88 88 89 91 79 74 71 72 71 69 64 58 57 56 52 53 54 52 52 51 46 47 46 46 50 47 43 47 45 45 45 43 42 45 44 44 43 42 44 47 48 50 50 51
108 101 94 95 92 91 90 86 82 75 76 76 75 73 68 61 58 54 53 55 53 50 54 52 49 50 50 50 50 47 47 44 46 43 43 46 40 41 43 41 41 44 44 48 50 52 53
100 101 103 100 97 95 93 88 85 83 79 76 69 72 68 66 58 56 55 54 52 52 54 53 54 52 51 49 45 42 41 41 40 41 44 41 38 39 39 40 43 44 45 47 50 52 54
98 95 92 94 88 91 88 86 83 81 81 78 74 69 63 59 56 58 56 55 54 53 58 56 56 54 52 51 48 47 46 43 43 44 44 42 42 41 41 42 44 46 49 51 53 54 55
91 91 92 85 78 71 69 72 74 70 63 64 68 67 63 59 56 59 57 57 57 56 57 57 56 55 55 53 52 51 48 46 46 46 45 45 44 45 45 46 45 45 47 50 53 53 52
82 79 81 85 83 73 65 65 64 65 66 63 61 62 62 59 62 61 59 59 60 53 57 58 56 56 54 53 53 52 52 50 49 48 48 48 47 45 44 45 47 46 46 47 47 50 51
80 74 67 76 75 80 75 63 62 60 61 61 61 64 60 59 58 61 62 65 58 51 56 59 58 58 56 55 54 54 54 54 53 51 49 47 47 44 42 42 43 44 42 37 39 43 45
75 76 65 63 68 69 70 69 62 60 63 65 63 63 62 61 61 62 63 65 60 57 59 59 56 55 55 54 56 56 55 54 53 50 45 46 47 45 41 40 42 40 38 37 35 36 41
70 73 70 64 57 55 67 70 68 65 64 64 67 67 63 66 65 65 67 65 60 58 56 56 57 55 54 55 56 58 58 51 48 45 42 45 47 47 45 43 37 37 37 38 36 37 39
69 65 64 66 65 70 62 68 68 68 66 65 65 67 65 67 66 70 71 60 60 60 60 57 57 58 55 54 54 51 49 45 43 43 44 42 45 46 43 40 34 33 30 36 38 39 39
68 60 58 51 64 64 62 68 68 69 71 66 65 62 63 69 69 68 66 61 58 58 57 57 57 52 48 47 47 46 45 44 43 42 42 34 33 31 33 37 35 36 35 39 42 41 41
59 61 55 56 55 61 63 62 68 66 65 69 70 68 68 69 67 65 61 60 58 55 53 52 53 50 50 47 46 47 45 44 42 42 39 34 44 47 45 44 44 43 42 41 40 40 37
55 54 51 43 52 48 63 58 66 65 63 62 65 66 67 65 60 58 54 54 56 56 54 51 52 48 47 48 48 48 47 46 44 44 43 43 45 47 46 47 47 44 44 42 46 37 40
57 63 46 50 49 55 57 54 57 63 63 63 64 65 62 60 58 56 56 54 52 49 52 51 52 50 51 52 50 49 49 49 50 48 47 45 47 50 51 48 49 48 45 47 43 39 38
59 62 60 54 53 54 50 54 51 60 61 61 61 59 58 60 59 59 57 51 49 49 49 50 50 50 51 49 49 50 50 49 46 45 45 42 46 49 48 47 48 51 45 48 44 41 42
37 50 41 52 55 52 49 52 49 48 53 53 55 55 55 57 57 52 49 47 44 45 45 42 45 47 45 48 51 51 51 48 46 44 45 48 45 47 49 47 50 49 42 41 42 41 41
45 35 44 37 36 43 47 48 47 44 43 48 50 50 51 52 51 50 47 46 45 44 43 41 37 38 38 42 46 50 49 48 40 34 42 45 47 52 49 50 51 45 44 40 39 39 39
38 37 34 36 39 37 42 45 39 38 35 44 46 48 48 46 46 44 45 43 40 36 33 30 32 37 38 39 43 42 44 41 42 33 38 45 43 42 44 44 46 43 38 36 36 37 35
34 38 40 36 35 40 46 41 34 34 32 40 42 45 47 44 41 41 40 37 33 34 32 34 38 40 40 43 39 33 41 43 41 27 29 31 35 33 33 36 40 34 32 32 33 26 28
35 38 44 44 43 42 40 39 38 36 35 34 36 39 38 36 35 36 34 32 30 26 31 31 28 33 34 36 39 34 34 40 50 42 35 32 32 34 33 35 36 29 28 28 25 25 25
22 23 35 45 47 48 43 37 36 33 35 36 35 35 33 32 30 35 35 31 32 31 29 25 24 22 22 33 33 32 22 36 29 36 33 33 31 30 33 34 30 28 26 22 21 22 21
Wind_Direction
259 258 259 258 257 257 257 258 259 258 260 261 262 262 262 262 263 265 265 267 268 269 270 271 270 271 274 280 280 283 283 283 282 278 258 260 262 264 270 281 273 270 270 273 275 275 273
258 259 260 258 258 258 258 258 257 257 257 260 260 262 262 263 263 263 265 267 266 268 268 269 270 270 274 278 278 279 275 278 275 269 258 257 260 266 270 278 277 273 273 274 275 276 275
254 260 264 260 258 259 262 259 257 258 257 258 260 261 262 264 265 267 268 268 270 269 269 271 272 274 275 275 278 275 269 271 267 260 257 259 263 270 276 276 277 276 272 276 277 276 275
254 263 257 260 261 261 258 257 257 258 260 260 262 262 265 266 268 267 269 270 269 271 270 274 271 274 273 275 274 266 267 269 257 256 259 263 268 271 275 278 278 277 275 275 271 274 276
252 255 250 257 258 260 258 257 259 260 259 262 263 263 265 268 268 269 268 266 267 267 269 271 270 273 266 268 269 267 270 264 257 256 259 263 270 274 276 275 278 275 273 276 274 275 273
251 253 251 254 257 259 255 254 259 262 262 260 260 262 265 265 268 268 268 266 265 264 265 268 269 268 269 268 266 265 265 261 261 260 262 267 272 277 280 278 274 274 275 275 273 272 271
247 248 250 250 252 249 254 252 257 260 258 255 258 260 261 263 268 271 266 265 265 264 267 266 264 262 263 262 263 265 264 260 261 264 267 267 272 280 276 274 274 272 275 274 274 273 272
248 248 246 248 248 249 252 252 251 256 254 255 260 261 261 263 267 272 269 264 264 261 259 259 259 261 262 264 264 264 266 268 269 271 276 276 273 272 273 274 272 273 273 274 273 273 272
248 249 246 247 250 250 252 253 252 252 252 255 257 257 259 262 264 264 262 263 260 260 261 257 261 263 262 265 266 269 270 271 271 276 277 273 270 274 273 272 272 274 275 275 274 274 276
247 243 244 246 245 247 250 254 255 252 254 257 255 254 259 260 258 259 255 260 259 257 259 260 258 260 263 266 269 273 276 277 277 277 274 273 277 272 272 274 273 270 274 275 275 275 276
248 249 251 249 245 245 245 247 249 251 250 251 255 251 253 255 254 251 252 253 252 255 256 259 259 260 260 265 268 266 271 272 274 274 276 278 275 274 275 275 274 275 277 277 278 278 278
248 248 251 253 254 252 251 249 250 246 247 249 246 247 245 245 245 247 246 247 246 246 253 255 257 261 263 266 266 266 269 269 271 272 274 276 276 276 273 273 275 277 279 279 279 282 282
247 248 249 249 252 253 253 253 252 250 242 239 239 240 239 243 242 244 243 244 243 244 256 256 258 260 262 266 270 271 270 268 269 272 275 273 273 274 275 276 277 277 277 279 279 281 283
243 247 247 250 249 247 249 250 247 248 249 239 238 240 237 237 240 242 242 241 239 249 248 251 254 258 262 266 269 269 269 270 272 276 277 274 270 270 273 274 275 276 278 278 283 281 282
238 239 240 244 246 250 246 244 244 245 245 242 240 237 236 239 240 241 242 241 242 247 250 251 253 255 259 263 264 267 270 272 273 276 277 273 269 270 273 275 277 278 279 278 276 279 280
237 235 235 236 239 243 245 241 241 241 240 240 236 236 237 240 242 243 242 245 243 241 247 250 250 253 256 258 263 268 269 268 273 275 271 269 270 271 271 273 273 276 274 272 270 275 280
232 233 230 229 228 226 239 237 237 237 241 240 238 238 236 238 238 238 241 247 249 249 251 253 256 257 257 258 261 266 267 268 268 267 269 270 270 270 269 271 271 267 265 266 271 275 282
231 229 231 229 229 228 228 233 233 234 235 238 241 242 238 236 237 241 243 248 248 249 250 252 254 257 258 258 259 260 262 262 264 266 268 270 271 269 272 268 263 260 266 268 269 279 283
228 224 228 235 235 229 228 233 232 230 231 233 235 235 236 237 238 244 249 246 246 247 247 250 253 253 254 254 256 257 258 259 261 262 264 263 266 269 264 264 261 258 253 263 274 278 275
220 216 218 230 231 230 229 229 234 232 232 235 234 232 232 232 235 236 235 239 241 242 242 242 245 250 253 255 256 258 258 256 253 253 252 250 254 258 259 263 262 263 263 266 269 277 275
208 203 217 220 216 217 226 229 235 232 233 236 237 240 238 237 242 246 245 247 246 244 246 249 251 252 253 253 252 255 256 256 255 255 253 250 255 256 259 261 263 266 267 267 265 274 274
199 199 208 225 215 229 235 228 234 233 234 235 237 238 238 241 245 247 246 244 244 246 249 250 251 252 250 250 253 250 252 252 254 255 252 250 254 253 257 264 263 261 261 267 268 272 258
200 208 214 219 219 224 234 223 232 234 234 234 235 236 239 239 241 243 244 245 248 246 244 246 248 248 249 252 249 248 248 247 246 246 247 248 250 255 261 262 264 262 262 271 275 269 261
211 202 215 229 230 231 228 228 229 230 231 233 236 236 240 242 244 245 247 248 248 249 247 245 246 248 251 249 251 249 247 245 245 249 251 248 249 254 258 262 263 265 266 271 271 262 262
196 207 209 219 222 224 224 222 224 222 224 226 226 225 232 238 239 242 245 246 245 246 250 251 254 255 250 245 243 243 244 248 243 257 251 241 247 258 261 264 266 268 276 274 264 259 258
207 204 191 206 216 218 217 218 218 210 214 220 220 223 230 233 237 239 239 241 244 247 243 245 236 236 234 236 237 239 243 239 231 240 239 244 252 251 257 264 268 270 268 267 263 256 262
208 212 218 218 214 216 217 217 212 207 211 217 218 220 224 230 230 230 230 233 229 225 227 226 226 229 232 234 233 233 233 223 218 230 239 243 247 257 264 269 266 265 267 267 261 266 262
218 223 225 225 223 218 218 212 204 207 208 209 209 213 217 220 220 219 215 207 214 228 223 220 238 234 231 238 229 230 254 235 237 247 258 264 259 258 257 262 265 266 264 261 257 254 254
201 215 229 232 230 228 222 212 206 205 203 203 201 204 205 207 203 205 192 198 202 212 213 231 216 227 236 224 215 239 244 244 250 250 246 247 253 252 255 260 263 259 252 256 260 259 258